WAT2635 CYWG-CYYZ

Flight info

Callsign WAT2635
Flight time 1h 57m
Altitude 35000
Route RORMA DCT AXOMA DCT SIDPO DCT DEGVA DCT AGLIN DCT OTNIK BOXUM7
Aircraft B738/M-SDE2E3FGHIRWXY/LB1

Departure

Time 2026-05-04 03:27
Airport Winnipeg / James Armstrong Richardson International Airport (CYWG)

Arrival

Time 2026-05-04 05:25
Airport Toronto Pearson International Airport (CYYZ)
Time Latitude Longitude Altitude Speed Heading
2026-05-04 02:56 49.90670 -97.22679 785 ft 0 kts 164°
2026-05-04 03:14 49.90676 -97.22681 785 ft 4 kts 166°
2026-05-04 03:14 49.90702 -97.22689 790 ft 4 kts 178°
2026-05-04 03:14 49.90727 -97.22684 785 ft 4 kts 207°
2026-05-04 03:15 49.90745 -97.22659 785 ft 4 kts 255°
2026-05-04 03:15 49.90747 -97.22645 785 ft 0 kts 260°
2026-05-04 03:17 49.90746 -97.22652 785 ft 3 kts 261°
2026-05-04 03:18 49.90744 -97.22669 785 ft 4 kts 260°
2026-05-04 03:18 49.90737 -97.22732 785 ft 8 kts 259°
2026-05-04 03:18 49.90725 -97.22837 785 ft 11 kts 258°
2026-05-04 03:18 49.90706 -97.22971 785 ft 14 kts 258°
2026-05-04 03:19 49.90685 -97.23135 785 ft 16 kts 260°
2026-05-04 03:19 49.90650 -97.23293 785 ft 16 kts 223°
2026-05-04 03:19 49.90536 -97.23359 785 ft 19 kts 181°
2026-05-04 03:19 49.90447 -97.23228 788 ft 18 kts 120°
2026-05-04 03:20 49.90342 -97.23147 785 ft 17 kts 128°
2026-05-04 03:20 49.90276 -97.23033 785 ft 14 kts 165°
2026-05-04 03:20 49.90189 -97.23002 785 ft 13 kts 128°
2026-05-04 03:20 49.90156 -97.22871 785 ft 13 kts 105°
2026-05-04 03:21 49.90119 -97.22752 785 ft 13 kts 150°
2026-05-04 03:21 49.90035 -97.22769 785 ft 12 kts 197°
2026-05-04 03:21 49.89956 -97.22810 785 ft 12 kts 199°
2026-05-04 03:21 49.89878 -97.22837 785 ft 12 kts 161°
2026-05-04 03:22 49.89822 -97.22750 785 ft 11 kts 131°
2026-05-04 03:22 49.89772 -97.22658 785 ft 11 kts 129°
2026-05-04 03:22 49.89725 -97.22567 785 ft 10 kts 129°
2026-05-04 03:22 49.89674 -97.22543 785 ft 7 kts 216°
2026-05-04 03:23 49.89644 -97.22590 785 ft 4 kts 228°
2026-05-04 03:23 49.89625 -97.22625 785 ft 4 kts 229°
2026-05-04 03:23 49.89617 -97.22639 785 ft 0 kts 230°
2026-05-04 03:24 49.89612 -97.22649 785 ft 3 kts 231°
2026-05-04 03:24 49.89594 -97.22681 785 ft 5 kts 230°
2026-05-04 03:24 49.89572 -97.22722 785 ft 5 kts 232°
2026-05-04 03:24 49.89552 -97.22764 784 ft 5 kts 233°
2026-05-04 03:25 49.89540 -97.22803 784 ft 3 kts 262°
2026-05-04 03:25 49.89550 -97.22832 784 ft 3 kts 317°
2026-05-04 03:25 49.89554 -97.22838 784 ft 0 kts 318°
2026-05-04 03:26 49.89562 -97.22849 784 ft 11 kts 318°
2026-05-04 03:26 49.89807 -97.23184 783 ft 81 kts 318°
2026-05-04 03:26 49.90384 -97.23973 791 ft 138 kts 317°
2026-05-04 03:27 49.91152 -97.24991 1314 ft 150 kts 314°
2026-05-04 03:27 49.91951 -97.26091 1982 ft 163 kts 314°
2026-05-04 03:27 49.92812 -97.27287 2737 ft 167 kts 315°
2026-05-04 03:27 49.93745 -97.28577 2971 ft 191 kts 316°
2026-05-04 03:28 49.94783 -97.30000 3280 ft 206 kts 317°
2026-05-04 03:28 49.95894 -97.31518 3572 ft 222 kts 316°
2026-05-04 03:28 49.97078 -97.33151 4155 ft 231 kts 318°
2026-05-04 03:28 49.98284 -97.34812 4977 ft 232 kts 317°
2026-05-04 03:29 49.99512 -97.36479 5764 ft 236 kts 322°
2026-05-04 03:29 50.01043 -97.37455 6528 ft 246 kts 347°
2026-05-04 03:29 50.02785 -97.37431 7286 ft 258 kts
2026-05-04 03:29 50.04496 -97.36485 8013 ft 273 kts 23°
2026-05-04 03:30 50.05971 -97.34514 8771 ft 291 kts 45°
2026-05-04 03:30 50.06869 -97.31596 9449 ft 312 kts 72°
2026-05-04 03:30 50.06993 -97.28120 9923 ft 332 kts 92°
2026-05-04 03:30 50.06471 -97.24536 10310 ft 351 kts 107°
2026-05-04 03:31 50.05608 -97.20855 10481 ft 373 kts 111°
2026-05-04 03:31 50.04613 -97.17006 10754 ft 391 kts 112°
2026-05-04 03:31 50.03588 -97.13021 11197 ft 402 kts 111°
2026-05-04 03:31 50.02569 -97.08925 11765 ft 409 kts 111°
2026-05-04 03:32 50.01562 -97.04753 12402 ft 415 kts 111°
2026-05-04 03:32 50.00561 -97.00513 13067 ft 421 kts 111°
2026-05-04 03:32 49.99553 -96.96207 13684 ft 427 kts 112°
2026-05-04 03:32 49.98537 -96.91855 14324 ft 429 kts 113°
2026-05-04 03:33 49.97520 -96.87497 15106 ft 430 kts 113°
2026-05-04 03:33 49.96493 -96.83119 15832 ft 433 kts 114°
2026-05-04 03:33 49.95463 -96.78740 16641 ft 432 kts 114°
2026-05-04 03:33 49.94472 -96.74306 17296 ft 439 kts 109°
2026-05-04 03:34 49.93869 -96.69618 17883 ft 448 kts 98°
2026-05-04 03:34 49.93743 -96.64753 18418 ft 454 kts 91°
2026-05-04 03:34 49.93748 -96.59825 18978 ft 458 kts 91°
2026-05-04 03:34 49.93760 -96.54863 19526 ft 461 kts 91°
2026-05-04 03:35 49.93748 -96.49864 20067 ft 465 kts 91°
2026-05-04 03:35 49.93711 -96.44831 20593 ft 469 kts 92°
2026-05-04 03:35 49.93659 -96.39756 21115 ft 472 kts 92°
2026-05-04 03:35 49.93603 -96.34637 21639 ft 476 kts 91°
2026-05-04 03:36 49.93554 -96.29476 22139 ft 480 kts 91°
2026-05-04 03:36 49.93506 -96.24271 22619 ft 484 kts 91°
2026-05-04 03:36 49.93458 -96.19021 23069 ft 488 kts 91°
2026-05-04 03:36 49.93406 -96.13732 23466 ft 492 kts 91°
2026-05-04 03:37 49.93352 -96.08409 23873 ft 495 kts 91°
2026-05-04 03:37 49.93294 -96.03048 24275 ft 498 kts 91°
2026-05-04 03:37 49.93233 -95.97727 24652 ft 501 kts 91°
2026-05-04 03:37 49.93168 -95.92231 25025 ft 505 kts 91°
2026-05-04 03:38 49.93101 -95.86833 25389 ft 508 kts 91°
2026-05-04 03:38 49.93029 -95.81257 25756 ft 512 kts 91°
2026-05-04 03:38 49.92955 -95.75720 26109 ft 515 kts 91°
2026-05-04 03:38 49.92878 -95.70139 26458 ft 518 kts 91°
2026-05-04 03:39 49.92799 -95.64606 26803 ft 521 kts 91°
2026-05-04 03:39 49.92716 -95.58965 27153 ft 524 kts 91°
2026-05-04 03:39 49.92630 -95.53297 27497 ft 527 kts 91°
2026-05-04 03:39 49.92541 -95.47592 27815 ft 530 kts 91°
2026-05-04 03:40 49.92449 -95.41857 28099 ft 534 kts 90°
2026-05-04 03:40 49.92350 -95.36079 28426 ft 537 kts 90°
2026-05-04 03:40 49.92248 -95.30280 28735 ft 539 kts 91°
2026-05-04 03:40 49.92142 -95.24448 29038 ft 542 kts 90°
2026-05-04 03:41 49.92032 -95.18585 29338 ft 544 kts 90°
2026-05-04 03:41 49.91920 -95.12713 29699 ft 544 kts 91°
2026-05-04 03:41 49.91807 -95.06866 30165 ft 541 kts 91°
2026-05-04 03:41 49.91691 -95.01057 30687 ft 536 kts 91°
2026-05-04 03:42 49.91478 -94.95305 31180 ft 532 kts 97°
2026-05-04 03:42 49.90809 -94.89681 31604 ft 529 kts 106°
2026-05-04 03:42 49.89644 -94.84292 31960 ft 526 kts 116°
2026-05-04 03:42 49.88204 -94.79094 32336 ft 524 kts 116°
2026-05-04 03:43 49.86746 -94.73932 32645 ft 522 kts 117°
2026-05-04 03:43 49.85290 -94.68786 33032 ft 521 kts 117°
2026-05-04 03:43 49.83849 -94.63641 33304 ft 521 kts 116°
2026-05-04 03:43 49.82420 -94.58495 33614 ft 519 kts 116°
2026-05-04 03:44 49.81010 -94.53376 34029 ft 514 kts 116°
2026-05-04 03:44 49.79617 -94.48303 34372 ft 512 kts 115°
2026-05-04 03:44 49.78216 -94.43207 34352 ft 516 kts 115°
2026-05-04 03:45 49.75403 -94.33003 34359 ft 514 kts 115°
2026-05-04 03:45 49.72611 -94.22924 34380 ft 508 kts 116°
2026-05-04 03:46 49.69819 -94.12905 34407 ft 508 kts 116°
2026-05-04 03:46 49.67015 -94.02887 34379 ft 508 kts 116°
2026-05-04 03:47 49.64223 -93.92953 34420 ft 508 kts 116°
2026-05-04 03:47 49.61401 -93.82950 34438 ft 509 kts 116°
2026-05-04 03:48 49.58567 -93.72948 34433 ft 510 kts 116°
2026-05-04 03:48 49.55719 -93.62938 34429 ft 511 kts 116°
2026-05-04 03:49 49.52857 -93.52920 34443 ft 512 kts 116°
2026-05-04 03:49 49.49981 -93.42895 34439 ft 512 kts 116°
2026-05-04 03:50 49.47094 -93.32877 34399 ft 513 kts 116°
2026-05-04 03:50 49.44201 -93.22877 34434 ft 512 kts 116°
2026-05-04 03:51 49.41300 -93.12891 34444 ft 512 kts 116°
2026-05-04 03:51 49.38390 -93.02918 34462 ft 512 kts 116°
2026-05-04 03:52 49.35471 -92.92954 34457 ft 512 kts 116°
2026-05-04 03:52 49.32542 -92.82995 34455 ft 512 kts 116°
2026-05-04 03:53 49.29605 -92.73052 34456 ft 512 kts 116°
2026-05-04 03:53 49.27161 -92.64805 34441 ft 512 kts 116°
2026-05-04 03:54 49.24215 -92.54901 34467 ft 511 kts 116°
2026-05-04 03:54 49.21262 -92.45023 34465 ft 511 kts 116°
2026-05-04 03:55 49.18302 -92.35157 34465 ft 510 kts 116°
2026-05-04 03:55 49.15336 -92.25309 34467 ft 510 kts 116°
2026-05-04 03:56 49.12363 -92.15476 34484 ft 510 kts 116°
2026-05-04 03:56 49.09382 -92.05660 34469 ft 510 kts 116°
2026-05-04 03:57 49.06394 -91.95861 34457 ft 509 kts 116°
2026-05-04 03:57 49.03404 -91.86091 34474 ft 508 kts 116°
2026-05-04 03:58 48.98909 -91.71477 34494 ft 508 kts 116°
2026-05-04 03:58 48.95903 -91.61750 34479 ft 508 kts 116°
2026-05-04 03:59 48.92891 -91.52043 34484 ft 507 kts 116°
2026-05-04 03:59 48.89873 -91.42356 34491 ft 507 kts 116°
2026-05-04 04:00 48.86850 -91.32691 34490 ft 506 kts 116°
2026-05-04 04:00 48.83822 -91.23043 34497 ft 506 kts 116°
2026-05-04 04:01 48.80805 -91.13469 34504 ft 506 kts 116°
2026-05-04 04:01 48.77760 -91.03847 34507 ft 506 kts 116°
2026-05-04 04:02 48.74708 -90.94234 34513 ft 506 kts 116°
2026-05-04 04:02 48.71628 -90.84572 34528 ft 506 kts 116°
2026-05-04 04:03 48.68579 -90.75044 34520 ft 506 kts 116°
2026-05-04 04:03 48.65479 -90.65395 34528 ft 507 kts 116°
2026-05-04 04:04 48.62394 -90.55829 34525 ft 506 kts 116°
2026-05-04 04:04 48.59323 -90.46340 34534 ft 506 kts 116°
2026-05-04 04:05 48.56222 -90.36795 34545 ft 507 kts 116°
2026-05-04 04:05 48.53110 -90.27253 34549 ft 507 kts 116°
2026-05-04 04:06 48.49987 -90.17714 34545 ft 507 kts 116°
2026-05-04 04:06 48.46854 -90.08179 34552 ft 507 kts 116°
2026-05-04 04:07 48.43715 -89.98663 34551 ft 507 kts 116°
2026-05-04 04:07 48.40568 -89.89155 34554 ft 507 kts 116°
2026-05-04 04:08 48.37416 -89.79666 34560 ft 507 kts 116°
2026-05-04 04:08 48.34257 -89.70196 34566 ft 506 kts 116°
2026-05-04 04:09 48.31094 -89.60744 34573 ft 506 kts 116°
2026-05-04 04:09 48.27924 -89.51304 34568 ft 506 kts 116°
2026-05-04 04:10 48.24749 -89.41884 34572 ft 506 kts 116°
2026-05-04 04:10 48.21680 -89.32401 34542 ft 505 kts 112°
2026-05-04 04:11 48.18962 -89.22702 34563 ft 504 kts 111°
2026-05-04 04:11 48.16289 -89.12997 34578 ft 504 kts 111°
2026-05-04 04:12 48.13556 -89.03322 34585 ft 504 kts 112°
2026-05-04 04:12 48.10783 -88.93689 34576 ft 504 kts 112°
2026-05-04 04:13 48.08014 -88.84144 34577 ft 503 kts 112°
2026-05-04 04:13 48.05221 -88.74545 34580 ft 503 kts 112°
2026-05-04 04:14 48.02424 -88.64958 34584 ft 504 kts 112°
2026-05-04 04:14 47.99619 -88.55383 34553 ft 503 kts 112°
2026-05-04 04:15 47.96812 -88.45839 34569 ft 502 kts 112°
2026-05-04 04:15 47.94002 -88.36322 34580 ft 501 kts 112°
2026-05-04 04:16 47.91189 -88.26828 34595 ft 501 kts 112°
2026-05-04 04:16 47.88368 -88.17347 34582 ft 500 kts 112°
2026-05-04 04:17 47.85540 -88.07879 34587 ft 500 kts 112°
2026-05-04 04:17 47.82707 -87.98429 34588 ft 500 kts 112°
2026-05-04 04:18 47.79869 -87.89001 34606 ft 499 kts 111°
2026-05-04 04:18 47.77024 -87.79572 34588 ft 499 kts 112°
2026-05-04 04:19 47.74171 -87.70171 34597 ft 499 kts 112°
2026-05-04 04:19 47.71311 -87.60777 34605 ft 499 kts 112°
2026-05-04 04:20 47.68464 -87.51460 34607 ft 499 kts 112°
2026-05-04 04:20 47.65594 -87.42087 34619 ft 499 kts 112°
2026-05-04 04:21 47.62710 -87.32724 34613 ft 500 kts 112°
2026-05-04 04:21 47.59814 -87.23360 34623 ft 500 kts 112°
2026-05-04 04:22 47.56913 -87.14010 34629 ft 500 kts 112°
2026-05-04 04:22 47.54006 -87.04672 34647 ft 499 kts 112°
2026-05-04 04:23 47.51097 -86.95363 34632 ft 498 kts 112°
2026-05-04 04:23 47.48200 -86.86127 34628 ft 496 kts 112°
2026-05-04 04:24 47.45297 -86.76903 34632 ft 494 kts 112°
2026-05-04 04:24 47.42394 -86.67715 34635 ft 493 kts 112°
2026-05-04 04:25 47.39491 -86.58558 34652 ft 491 kts 113°
2026-05-04 04:25 47.36594 -86.49454 34648 ft 489 kts 113°
2026-05-04 04:26 47.33710 -86.40423 34646 ft 487 kts 113°
2026-05-04 04:26 47.30821 -86.31409 34649 ft 485 kts 113°
2026-05-04 04:27 47.27938 -86.22444 34665 ft 484 kts 113°
2026-05-04 04:27 47.25066 -86.13547 34659 ft 484 kts 113°
2026-05-04 04:28 47.22172 -86.04609 34663 ft 484 kts 114°
2026-05-04 04:28 47.19267 -85.95671 34666 ft 485 kts 114°
2026-05-04 04:29 47.16351 -85.86730 34669 ft 485 kts 114°
2026-05-04 04:29 47.13426 -85.77791 34669 ft 486 kts 114°
2026-05-04 04:30 47.10487 -85.68842 34671 ft 487 kts 114°
2026-05-04 04:30 47.07536 -85.59887 34665 ft 487 kts 114°
2026-05-04 04:31 47.04575 -85.50933 34675 ft 488 kts 114°
2026-05-04 04:31 47.01606 -85.41987 34673 ft 488 kts 114°
2026-05-04 04:32 46.98626 -85.33039 34677 ft 489 kts 114°
2026-05-04 04:32 46.95637 -85.24094 34678 ft 489 kts 114°
2026-05-04 04:33 46.92661 -85.15219 34679 ft 489 kts 114°
2026-05-04 04:33 46.89661 -85.06300 34694 ft 489 kts 114°
2026-05-04 04:34 46.86651 -84.97386 34682 ft 489 kts 114°
2026-05-04 04:34 46.83641 -84.88499 34679 ft 488 kts 114°
2026-05-04 04:35 46.80623 -84.79622 34683 ft 488 kts 114°
2026-05-04 04:35 46.77601 -84.70761 34716 ft 488 kts 115°
2026-05-04 04:36 46.74570 -84.61903 34688 ft 488 kts 115°
2026-05-04 04:36 46.71530 -84.53048 34686 ft 489 kts 115°
2026-05-04 04:37 46.65422 -84.35350 34682 ft 489 kts 115°
2026-05-04 04:38 46.62359 -84.26520 34685 ft 490 kts 115°
2026-05-04 04:38 46.59282 -84.17677 34680 ft 490 kts 115°
2026-05-04 04:39 46.56195 -84.08837 34686 ft 490 kts 115°
2026-05-04 04:39 46.53130 -84.00088 34688 ft 491 kts 115°
2026-05-04 04:40 46.50027 -83.91260 34708 ft 491 kts 116°
2026-05-04 04:40 46.46916 -83.82436 34699 ft 491 kts 116°
2026-05-04 04:41 46.43796 -83.73614 34699 ft 491 kts 116°
2026-05-04 04:41 46.41200 -83.66297 34698 ft 491 kts 116°
2026-05-04 04:42 46.37708 -83.57796 34689 ft 492 kts 124°
2026-05-04 04:42 46.33647 -83.49826 34705 ft 492 kts 127°
2026-05-04 04:43 46.29584 -83.41872 34700 ft 492 kts 126°
2026-05-04 04:43 46.25598 -83.33842 34702 ft 491 kts 125°
2026-05-04 04:44 46.21637 -83.25799 34700 ft 491 kts 125°
2026-05-04 04:44 46.17669 -83.17773 34706 ft 491 kts 126°
2026-05-04 04:45 46.13694 -83.09765 34696 ft 491 kts 125°
2026-05-04 04:47 45.99745 -82.81873 34718 ft 491 kts 126°
2026-05-04 04:47 45.95743 -82.73917 34700 ft 491 kts 126°
2026-05-04 04:48 45.91765 -82.66030 34677 ft 491 kts 126°
2026-05-04 04:49 45.81736 -82.46243 34753 ft 490 kts 126°
2026-05-04 04:49 45.77710 -82.38348 34742 ft 491 kts 126°
2026-05-04 04:50 45.73679 -82.30459 34735 ft 491 kts 126°
2026-05-04 04:50 45.69643 -82.22580 34719 ft 491 kts 126°
2026-05-04 04:51 45.65609 -82.14725 34744 ft 490 kts 126°
2026-05-04 04:51 45.61557 -82.06873 34738 ft 490 kts 128°
2026-05-04 04:52 45.56817 -81.99917 34737 ft 489 kts 139°
2026-05-04 04:52 45.51748 -81.93448 34734 ft 489 kts 139°
2026-05-04 04:53 45.46720 -81.86903 34724 ft 489 kts 138°
2026-05-04 04:53 45.41746 -81.80283 34736 ft 489 kts 138°
2026-05-04 04:54 45.36780 -81.73657 34734 ft 490 kts 138°
2026-05-04 04:54 45.31800 -81.67040 34735 ft 490 kts 138°
2026-05-04 04:55 45.26784 -81.60401 34071 ft 496 kts 138°
2026-05-04 04:55 45.24296 -81.57116 33501 ft 494 kts 138°
2026-05-04 04:55 45.21792 -81.53814 33027 ft 489 kts 138°
2026-05-04 04:56 45.19308 -81.50542 32567 ft 485 kts 139°
2026-05-04 04:56 45.16848 -81.47305 32124 ft 480 kts 139°
2026-05-04 04:56 45.14410 -81.44101 31668 ft 476 kts 139°
2026-05-04 04:56 45.11993 -81.40928 31239 ft 472 kts 139°
2026-05-04 04:57 45.09597 -81.37785 30809 ft 468 kts 139°
2026-05-04 04:57 45.07217 -81.34669 30386 ft 464 kts 139°
2026-05-04 04:57 45.04856 -81.31580 29941 ft 461 kts 138°
2026-05-04 04:57 45.02507 -81.28511 29465 ft 458 kts 138°
2026-05-04 04:58 45.00181 -81.25475 29023 ft 453 kts 139°
2026-05-04 04:58 44.97878 -81.22472 28605 ft 448 kts 139°
2026-05-04 04:58 44.95596 -81.19501 28177 ft 444 kts 139°
2026-05-04 04:58 44.93341 -81.16565 27769 ft 439 kts 140°
2026-05-04 04:59 44.91105 -81.13660 27346 ft 435 kts 140°
2026-05-04 04:59 44.88891 -81.10787 26915 ft 431 kts 140°
2026-05-04 04:59 44.86694 -81.07940 26490 ft 427 kts 140°
2026-05-04 04:59 44.84511 -81.05113 26073 ft 424 kts 140°
2026-05-04 05:00 44.82348 -81.02315 25643 ft 421 kts 140°
2026-05-04 05:00 44.80203 -80.99544 25250 ft 417 kts 140°
2026-05-04 05:00 44.75954 -80.94061 24447 ft 412 kts 140°
2026-05-04 05:01 44.73844 -80.91343 24053 ft 410 kts 140°
2026-05-04 05:01 44.71748 -80.88646 23652 ft 408 kts 141°
2026-05-04 05:01 44.69661 -80.85962 23224 ft 406 kts 141°
2026-05-04 05:01 44.67584 -80.83295 22766 ft 403 kts 141°
2026-05-04 05:02 44.65520 -80.80645 22332 ft 400 kts 141°
2026-05-04 05:02 44.63474 -80.78022 21940 ft 397 kts 141°
2026-05-04 05:02 44.61441 -80.75419 21524 ft 394 kts 141°
2026-05-04 05:02 44.59426 -80.72842 21200 ft 389 kts 141°
2026-05-04 05:03 44.57438 -80.70303 20941 ft 385 kts 141°
2026-05-04 05:03 44.55468 -80.67789 20627 ft 381 kts 141°
2026-05-04 05:04 44.49633 -80.60358 19477 ft 375 kts 141°
2026-05-04 05:04 44.47729 -80.57938 19097 ft 374 kts 141°
2026-05-04 05:04 44.45809 -80.55498 18715 ft 372 kts 141°
2026-05-04 05:06 44.32607 -80.38783 16041 ft 356 kts 141°
2026-05-04 05:06 44.30791 -80.36491 15772 ft 351 kts 141°
2026-05-04 05:06 44.28980 -80.34209 15416 ft 349 kts 141°
2026-05-04 05:07 44.27182 -80.31945 15069 ft 347 kts 141°
2026-05-04 05:07 44.25393 -80.29695 14712 ft 346 kts 141°
2026-05-04 05:07 44.23610 -80.27454 14352 ft 344 kts 142°
2026-05-04 05:09 44.09637 -80.09932 11454 ft 330 kts 142°
2026-05-04 05:09 44.07936 -80.07802 11104 ft 328 kts 142°
2026-05-04 05:10 44.06240 -80.05682 10748 ft 327 kts 142°
2026-05-04 05:10 44.04552 -80.03574 10485 ft 323 kts 142°
2026-05-04 05:10 44.02906 -80.01517 10332 ft 315 kts 142°
2026-05-04 05:10 44.01266 -79.99536 10119 ft 308 kts 147°
2026-05-04 05:11 43.99531 -79.97905 10050 ft 296 kts 153°
2026-05-04 05:11 43.97799 -79.96424 9795 ft 292 kts 154°
2026-05-04 05:11 43.96069 -79.94957 9515 ft 291 kts 154°
2026-05-04 05:11 43.94354 -79.93485 9238 ft 289 kts 153°
2026-05-04 05:12 43.92657 -79.92011 8934 ft 287 kts 153°
2026-05-04 05:12 43.90970 -79.90532 8644 ft 286 kts 153°
2026-05-04 05:12 43.89302 -79.89062 8470 ft 281 kts 153°
2026-05-04 05:12 43.87680 -79.87629 8333 ft 274 kts 153°
2026-05-04 05:13 43.86093 -79.86227 8202 ft 267 kts 154°
2026-05-04 05:13 43.84550 -79.84853 8074 ft 261 kts 151°
2026-05-04 05:13 43.83156 -79.83206 7803 ft 265 kts 141°
2026-05-04 05:13 43.81848 -79.81411 7555 ft 264 kts 141°
2026-05-04 05:14 43.80539 -79.79632 7301 ft 263 kts 141°
2026-05-04 05:14 43.79229 -79.77882 7048 ft 261 kts 142°
2026-05-04 05:14 43.77916 -79.76146 6803 ft 260 kts 142°
2026-05-04 05:14 43.76734 -79.74243 6531 ft 267 kts 120°
2026-05-04 05:15 43.76348 -79.71738 6291 ft 270 kts 85°
2026-05-04 05:15 43.76936 -79.69347 6141 ft 259 kts 53°
2026-05-04 05:15 43.78063 -79.67483 6036 ft 248 kts 41°
2026-05-04 05:15 43.79249 -79.65798 5916 ft 247 kts 40°
2026-05-04 05:16 43.80459 -79.64090 5820 ft 250 kts 41°
2026-05-04 05:16 43.81682 -79.62349 5705 ft 254 kts 41°
2026-05-04 05:16 43.82906 -79.60586 5578 ft 255 kts 41°
2026-05-04 05:16 43.84129 -79.58812 5464 ft 253 kts 41°
2026-05-04 05:17 43.85340 -79.57047 5346 ft 253 kts 41°
2026-05-04 05:17 43.86551 -79.55281 5232 ft 253 kts 41°
2026-05-04 05:17 43.87759 -79.53518 5120 ft 252 kts 41°
2026-05-04 05:17 43.88830 -79.51585 4980 ft 258 kts 64°
2026-05-04 05:18 43.89159 -79.49162 4873 ft 256 kts 98°
2026-05-04 05:18 43.88603 -79.46930 4849 ft 235 kts 133°
2026-05-04 05:18 43.87437 -79.45604 4852 ft 206 kts 170°
2026-05-04 05:18 43.86086 -79.45352 4742 ft 196 kts 189°
2026-05-04 05:19 43.84698 -79.45350 4480 ft 200 kts 189°
2026-05-04 05:19 43.83318 -79.45346 4212 ft 197 kts 190°
2026-05-04 05:19 43.82018 -79.45500 4105 ft 173 kts 212°
2026-05-04 05:19 43.81162 -79.46511 3981 ft 163 kts 236°
2026-05-04 05:20 43.80354 -79.47679 3757 ft 170 kts 231°
2026-05-04 05:20 43.79532 -79.48822 3525 ft 164 kts 232°
2026-05-04 05:20 43.78765 -79.49918 3288 ft 152 kts 233°
2026-05-04 05:20 43.78064 -79.50929 3120 ft 141 kts 234°
2026-05-04 05:21 43.77409 -79.51879 2918 ft 131 kts 234°
2026-05-04 05:21 43.76792 -79.52776 2754 ft 127 kts 233°
2026-05-04 05:21 43.76189 -79.53652 2578 ft 123 kts 234°
2026-05-04 05:21 43.75607 -79.54499 2416 ft 123 kts 234°
2026-05-04 05:22 43.75007 -79.55374 2247 ft 126 kts 233°
2026-05-04 05:22 43.74401 -79.56252 2100 ft 124 kts 233°
2026-05-04 05:22 43.73812 -79.57106 1915 ft 121 kts 232°
2026-05-04 05:22 43.73220 -79.57969 1740 ft 126 kts 230°
2026-05-04 05:23 43.72613 -79.58848 1562 ft 126 kts 231°
2026-05-04 05:23 43.71983 -79.59759 1380 ft 135 kts 229°
2026-05-04 05:23 43.71310 -79.60745 1175 ft 143 kts 227°
2026-05-04 05:23 43.70617 -79.61751 961 ft 145 kts 228°
2026-05-04 05:24 43.69918 -79.62759 772 ft 145 kts 226°
2026-05-04 05:24 43.69236 -79.63756 615 ft 141 kts 226°
2026-05-04 05:24 43.68609 -79.64676 566 ft 117 kts 226°
2026-05-04 05:24 43.68201 -79.65266 566 ft 50 kts 226°
2026-05-04 05:25 43.68076 -79.65408 565 ft 19 kts 214°
2026-05-04 05:25 43.67958 -79.65469 563 ft 18 kts 196°
2026-05-04 05:25 43.67861 -79.65468 564 ft 14 kts 144°
2026-05-04 05:25 43.67867 -79.65352 564 ft 13 kts 51°
2026-05-04 05:26 43.67928 -79.65258 565 ft 13 kts 46°
2026-05-04 05:26 43.67993 -79.65164 566 ft 15 kts 46°
2026-05-04 05:26 43.68064 -79.65060 571 ft 15 kts 46°
2026-05-04 05:26 43.68133 -79.64960 569 ft 14 kts 46°
2026-05-04 05:27 43.68201 -79.64862 570 ft 14 kts 46°
2026-05-04 05:28 43.68785 -79.64015 568 ft 20 kts 45°
2026-05-04 05:29 43.68915 -79.63826 572 ft 22 kts 47°
2026-05-04 05:29 43.68985 -79.63725 570 ft 22 kts 46°
2026-05-04 05:29 43.68998 -79.63570 568 ft 19 kts 131°
2026-05-04 05:29 43.68896 -79.63439 565 ft 20 kts 136°
2026-05-04 05:31 43.68219 -79.62562 565 ft 17 kts 135°
2026-05-04 05:31 43.68136 -79.62449 563 ft 16 kts 137°
2026-05-04 05:32 43.68054 -79.62346 562 ft 16 kts 138°
2026-05-04 05:32 43.67973 -79.62248 565 ft 15 kts 139°
2026-05-04 05:32 43.67916 -79.62134 561 ft 14 kts 90°
2026-05-04 05:33 43.68007 -79.61906 564 ft 13 kts 55°
2026-05-04 05:33 43.68069 -79.61813 564 ft 13 kts 46°
2026-05-04 05:33 43.68129 -79.61727 560 ft 10 kts 46°
2026-05-04 05:33 43.68137 -79.61700 564 ft 2 kts 96°
2026-05-04 05:34 43.68133 -79.61682 563 ft 2 kts 105°
2026-05-04 05:34 43.68129 -79.61643 566 ft 6 kts 87°
2026-05-04 05:34 43.68145 -79.61589 565 ft 4 kts 60°
2026-05-04 05:34 43.68157 -79.61562 560 ft 2 kts 58°
2026-05-04 05:35 43.68161 -79.61554 568 ft 0 kts 58°